Mytilini, Greece

8:35 AM EEST on June 19, 2018 (GMT +0300)
Odysseas Elytis

Weather History for LGMT - August, 2017

Change the Weather History Date:

Saturday, August 12, 2017

  Actual Average Record
Temperature  
Mean Temperature 88 °F -  
Max Temperature 97 °F 84 °F 102 °F (2002)
Min Temperature 79 °F 68 °F 69 °F (1996)
Cooling Degree Days 23    
Growing Degree Days 38 (Base 50)    
Moisture  
Dew Point 59 °F    
Average Humidity 37    
Maximum Humidity 54    
Minimum Humidity 16    
Precipitation  
Precipitation 0.00 in 0.01 in - ()
Sea Level Pressure  
Sea Level Pressure 29.76 in    
Wind  
Wind Speed 8 mph ()    
Max Wind Speed 16 mph    
Max Gust Speed -    
Visibility 6.3 miles    
Events      
Averages and records for this station are not official NWS values.
T = Trace of Precipitation, MM = Missing Value Source: Averaged Metar Reports

Daily Weather History Graph

Daily Weather History Graph

Search for Another Location

Airport or City:

Astronomy

Aug. 12, 2017 Rise Set
Actual Time 6:24 AM EEST 8:12 PM EEST
Civil Twilight 5:55 AM EEST 8:41 PM EEST
Nautical Twilight 5:20 AM EEST 9:16 PM EEST
Astronomical Twilight 4:42 AM EEST 9:53 PM EEST
Moon 11:01 PM EEST (8/12) 10:56 AM EEST (8/12)
Length of Visible Light 14h 45m
Length of Day
13h 48m
Waning Gibbous, 78% of the Moon is Illuminated
Aug 12
Waning Gibbous
Aug 15
Last Quarter
Aug 21
New
Aug 29
First Quarter
Sep 6
Full

Hourly Weather History & Observations

Time (EEST) Temp. Heat Index Dew Point Humidity Pressure Visibility Wind Dir Wind Speed Gust Speed Precip Events Conditions
4:50 AM 80.6 °F 81.8 °F 62.6 °F 54% 29.77 in - Variable 3.5 mph - N/A   Clear
5:20 AM 80.6 °F 81.8 °F 62.6 °F 54% 29.77 in - Variable 3.5 mph - N/A   Clear
5:50 AM 80.6 °F 81.8 °F 62.6 °F 54% 29.77 in - WNW 5.8 mph - N/A   Clear
6:00 AM 80 °F - 63 °F 46% 29.78 in 6 mi WNW 5.8 mph - -  
6:20 AM 80.6 °F 81.8 °F 62.6 °F 54% 29.77 in - WNW 5.8 mph - N/A   Clear
6:50 AM 80.6 °F 81.8 °F 62.6 °F 54% 29.77 in - Variable 3.5 mph - N/A   Clear
7:50 AM 82.4 °F 83.4 °F 62.6 °F 51% 29.77 in - NW 6.9 mph - N/A   Clear
8:20 AM 82.4 °F 83.4 °F 62.6 °F 51% 29.77 in - NW 8.1 mph - N/A   Clear
8:50 AM 82.4 °F 83.4 °F 62.6 °F 51% 29.77 in - NW 8.1 mph - N/A   Clear
9:00 AM 82 °F - 63 °F 43% 29.80 in 6 mi NW 8.1 mph - -  
9:20 AM 82.4 °F 83.4 °F 62.6 °F 51% 29.77 in - NW 9.2 mph - N/A   Clear
9:50 AM 84.2 °F 85.0 °F 62.6 °F 48% 29.77 in - NW 9.2 mph - N/A   Clear
10:20 AM 86.0 °F 86.6 °F 62.6 °F 45% 29.77 in - NW 10.4 mph - N/A   Clear
10:50 AM 86.0 °F 86.6 °F 62.6 °F 45% 29.77 in - NW 10.4 mph - N/A   Clear
11:20 AM 87.8 °F 87.6 °F 60.8 °F 40% 29.77 in - NW 10.4 mph - N/A   Clear
11:50 AM 87.8 °F 87.6 °F 60.8 °F 40% 29.77 in - NNW 11.5 mph - N/A   Clear
12:00 PM 89 °F - 61 °F 29% 29.80 in 6 mi NNW 11.5 mph - -  
12:20 PM 87.8 °F 87.6 °F 60.8 °F 40% 29.77 in - NNW 12.7 mph - N/A   Clear
12:50 PM 89.6 °F 89.5 °F 60.8 °F 38% 29.77 in - NNW 12.7 mph - N/A   Clear
1:20 PM 91.4 °F 90.7 °F 59.0 °F 34% 29.77 in - NNW 12.7 mph - N/A   Clear
1:50 PM 93.2 °F 92.6 °F 59.0 °F 32% 29.77 in - NNW 13.8 mph - N/A   Clear
2:20 PM 95.0 °F 94.4 °F 59.0 °F 30% 29.77 in - NNW 13.8 mph - N/A   Clear
2:50 PM 96.8 °F 96.2 °F 59.0 °F 28% 29.77 in - NNW 13.8 mph - N/A   Clear
3:00 PM 96 °F - 58 °F 19% 29.77 in 7 mi NNW 13.8 mph - -  
3:20 PM 96.8 °F 96.2 °F 59.0 °F 28% 29.77 in - NNW 13.8 mph - N/A   Clear
3:50 PM 96.8 °F 95.1 °F 55.4 °F 25% 29.74 in - NNW 15.0 mph - N/A   Clear
4:20 PM 96.8 °F 95.1 °F 55.4 °F 25% 29.74 in - NNW 15.0 mph - N/A   Clear
4:50 PM 96.8 °F 95.1 °F 55.4 °F 25% 29.74 in - NNW 16.1 mph - N/A   Clear
5:20 PM 96.8 °F 95.1 °F 55.4 °F 25% 29.74 in - NNW 16.1 mph - N/A   Clear
5:50 PM 96.8 °F 95.1 °F 55.4 °F 25% 29.74 in - NNW 13.8 mph - N/A   Clear
6:00 PM 96 °F - 55 °F 16% 29.75 in 7 mi NNW 13.8 mph - -  
6:20 PM 95.0 °F 92.7 °F 53.6 °F 25% 29.71 in - NNW 11.5 mph - N/A   Clear
6:50 PM 93.2 °F 90.8 °F 53.6 °F 26% 29.71 in - NW 10.4 mph - N/A   Clear
7:50 PM 89.6 °F 87.3 °F 53.6 °F 29% 29.71 in - NW 6.9 mph - N/A   Clear
8:20 PM 89.6 °F 87.3 °F 53.6 °F 29% 29.71 in - NW 6.9 mph - N/A   Clear
8:50 PM 87.8 °F 86.1 °F 55.4 °F 33% 29.71 in - WNW 6.9 mph - N/A   Clear
9:00 PM 87 °F - 56 °F 24% 29.74 in 6 mi WNW 6.9 mph - -  
9:20 PM 86.0 °F 84.5 °F 55.4 °F 35% 29.74 in - WNW 6.9 mph - N/A   Clear
9:50 PM 86.0 °F 84.2 °F 53.6 °F 33% 29.74 in - WNW 5.8 mph - N/A   Clear
10:20 PM 84.2 °F 82.8 °F 53.6 °F 35% 29.74 in - WNW 5.8 mph - N/A   Clear